Location: Babice
(50.3480°N, 22.9363°E)
Time: 01:49:02
(UTC+00:00)

Cosmos 1869 Rocket - Pass Details

Date: 14 July 2020
Orbit: 605 x 632 km, 82.5° (Epoch: 06 August)

Event Time Altitude Azimuth Distance (km) Brightness Sun altitude
Exits shadow 00:27:33 22° 200° (SSW) 1,327 4.6 -13.8°
Maximum altitude 00:30:16 72° 281° (WNW) 644 3.5 -13.6°
Drops below altitude 10° 00:34:38 10° 7° (N) 1,975 7.3 -13.3°
Sets 00:36:52 0° 9° (N) 2,887 8.4 -13.1°
